Estherville, IA

1:43 PM CDT on July 23, 2017 (GMT -0500)
Estherville Municipal

Weather History for KEST - May, 2013

Change the Weather History Date:

Thursday, May 2, 2013

  Actual Average Record
Temperature  
Mean Temperature 40 °F 54 °F  
Max Temperature 47 °F 66 °F 91 °F (1987)
Min Temperature 33 °F 41 °F 23 °F (1967)
Degree Days  
Heating Degree Days 25 12  
Month to date heating degree days 49 24  
Since 1 July heating degree days 7621 7485  
Cooling Degree Days 0 0  
Month to date cooling degree days 0 0  
Year to date cooling degree days 0 2  
Moisture  
Dew Point 28 °F    
Average Humidity 64    
Maximum Humidity 82    
Minimum Humidity 45    
Precipitation  
Precipitation 0.00 in 0.11 in 1.48 in (2008)
Month to date precipitation 0.71 0.23  
Sea Level Pressure  
Sea Level Pressure 30.49 in    
Wind  
Wind Speed 20 mph (North)    
Max Wind Speed 32 mph    
Max Gust Speed 40 mph    
Visibility 10 miles    
Events      
T = Trace of Precipitation, MM = Missing Value Source: NWS Daily Summary

Daily Weather History Graph

Daily Weather History Graph

Search for Another Location

Airport or City:

Trip Planner

Search our weather history database for the weather conditions in past years. The results will help you decide how hot, cold, wet, or windy it might be!

Date:

Astronomy

May. 02, 2013 Rise Set
Actual Time 6:10 AM CDT 8:22 PM CDT
Civil Twilight 5:38 AM CDT 8:53 PM CDT
Nautical Twilight 5:00 AM CDT 9:32 PM CDT
Astronomical Twilight 4:17 AM CDT 10:16 PM CDT
Moon 2:10 AM CDT (5/2) 1:00 PM CDT (5/2)
Length of Visible Light 15h 15m
Length of Day
14h 12m
Waning Gibbous, 47% of the Moon is Illuminated
May 2
Waning Gibbous
May 9
New
May 17
First Quarter
May 24
Full
May 31
Last Quarter

Hourly Weather History & Observations

Time (CDT) Temp. Windchill Dew Point Humidity Pressure Visibility Wind Dir Wind Speed Gust Speed Precip Events Conditions
12:52 AM 35.1 °F 25.2 °F 28.9 °F 78% 30.48 in 10.0 mi North 16.1 mph - 0.00 in   Overcast
1:52 AM 35.1 °F 25.2 °F 30.0 °F 82% 30.50 in 10.0 mi North 16.1 mph - N/A   Overcast
2:52 AM 35.1 °F 23.3 °F 28.9 °F 78% 30.51 in 10.0 mi North 23.0 mph - N/A   Overcast
3:52 AM 34.0 °F 22.1 °F 28.9 °F 82% 30.51 in 10.0 mi North 21.9 mph - N/A   Mostly Cloudy
4:52 AM 34.0 °F 22.7 °F 28.9 °F 82% 30.51 in 10.0 mi North 19.6 mph - N/A   Overcast
5:52 AM 33.1 °F 21.5 °F 28.9 °F 85% 30.52 in 10.0 mi North 19.6 mph - N/A   Overcast
6:52 AM 33.1 °F 22.2 °F 28.0 °F 82% 30.54 in 10.0 mi North 17.3 mph - N/A   Overcast
8:52 AM 34.0 °F 23.0 °F 27.0 °F 75% 30.56 in 10.0 mi North 18.4 mph 25.3 mph N/A   Mostly Cloudy
9:52 AM 34.0 °F 20.5 °F 25.0 °F 70% 30.56 in 10.0 mi North 28.8 mph 34.5 mph N/A   Mostly Cloudy
10:52 AM 35.1 °F 23.8 °F 27.0 °F 72% 30.56 in 10.0 mi North 20.7 mph 29.9 mph N/A   Overcast
11:52 AM 37.0 °F 24.9 °F 27.0 °F 67% 30.55 in 10.0 mi North 27.6 mph 33.4 mph N/A   Partly Cloudy
12:52 PM 39.9 °F 29.5 °F 28.9 °F 65% 30.53 in 10.0 mi North 24.2 mph 39.1 mph N/A   Clear
1:52 PM 43.0 °F 32.9 °F 28.0 °F 56% 30.51 in 10.0 mi North 27.6 mph 35.7 mph N/A   Clear
2:52 PM 46.0 °F 37.4 °F 30.0 °F 54% 30.49 in 10.0 mi North 25.3 mph 33.4 mph N/A   Clear
3:52 PM 45.0 °F 36.2 °F 28.9 °F 53% 30.48 in 10.0 mi North 24.2 mph 32.2 mph N/A   Clear
4:52 PM 45.0 °F 36.0 °F 28.0 °F 52% 30.46 in 10.0 mi North 25.3 mph 31.1 mph N/A   Clear
5:52 PM 46.9 °F - 27.0 °F 46% 30.45 in 10.0 mi North 21.9 mph 31.1 mph N/A   Clear
6:52 PM 45.0 °F 36.6 °F 27.0 °F 49% 30.43 in 10.0 mi North 21.9 mph 28.8 mph N/A   Clear
7:52 PM 43.0 °F 35.4 °F 27.0 °F 53% 30.44 in 10.0 mi North 16.1 mph 23.0 mph N/A   Clear
8:52 PM 39.9 °F 32.5 °F 28.0 °F 63% 30.44 in 10.0 mi NNW 12.7 mph - N/A   Clear
9:52 PM 37.0 °F 31.0 °F 30.0 °F 76% 30.45 in 10.0 mi North 8.1 mph - N/A   Clear
10:52 PM 37.0 °F 30.4 °F 30.0 °F 76% 30.44 in 10.0 mi NNW 9.2 mph - N/A   Clear
11:52 PM 36.0 °F 28.0 °F 27.0 °F 70% 30.43 in 10.0 mi North 11.5 mph - N/A   Clear